Weather History for Ft Lauderdale, FL

Change the Weather History Date:

Friday, February 1, 2013

  Actual Average Record
Temperature  
Mean Temperature 64 °F 70 °F  
Max Temperature 75 °F 77 °F 86 °F (1972)
Min Temperature 53 °F 63 °F 33 °F (1966)
Degree Days  
Heating Degree Days 1 1  
Month to date heating degree days 1 1  
Since 1 July heating degree days 25 81  
Cooling Degree Days 0 6  
Month to date cooling degree days 0 6  
Year to date cooling degree days 255 176  
Growing Degree Days 13 (Base 50)    
Moisture  
Dew Point 47 °F    
Average Humidity 55    
Maximum Humidity 67    
Minimum Humidity 42    
Precipitation  
Precipitation 0.00 in 0.11 in 3.62 in (2004)
Month to date precipitation 0.00 0.11  
Year to date precipitation 0.98 3.74  
Snow  
Snow 0.00 in - - ()
Month to date snowfall 0.0  
Since 1 July snowfall 0.0  
Snow Depth 0.00 in    
Sea Level Pressure  
Sea Level Pressure 30.21 in    
Wind  
Wind Speed 13 mph (North)    
Max Wind Speed 22 mph    
Max Gust Speed 26 mph    
Visibility 10 miles    
Events      
T = Trace of Precipitation, MM = Missing Value Source: NWS Daily Summary

Daily Weather History Graph

Daily Weather History Graph

Search for Another Location

Airport:

Trip Planner

Search our weather history database for the weather conditions in past years. The results will help you decide how hot, cold, wet, or windy it might be!

Date:

Astronomy

Feb. 01, 2013 Rise Set
Actual Time 7:04 AM EST 6:04 PM EST
Civil Twilight 6:40 AM EST 6:28 PM EST
Nautical Twilight 6:12 AM EST 6:55 PM EST
Astronomical Twilight 5:45 AM EST 7:23 PM EST
Moon 11:27 PM EST (2/1) 10:15 AM EST (2/1)
Length of Visible Light 11h 47m
Length of Day
10h 59m
Waning Gibbous, 70% of the Moon is Illuminated
Feb 1
Waning Gibbous
Feb 3
Last Quarter
Feb 10
New
Feb 17
First Quarter
Feb 25
Full

Hourly Weather History & Observations

Time (EST) Temp. Dew Point Humidity Pressure Visibility Wind Dir Wind Speed Gust Speed Precip Events Conditions
12:53 AM 59.0 °F 39.0 °F 48% 30.17 in 10.0 mi NNW 11.5 mph - N/A   Clear
1:53 AM 59.0 °F 39.0 °F 48% 30.17 in 10.0 mi NNW 10.4 mph - N/A   Clear
2:53 AM 57.0 °F 39.0 °F 51% 30.17 in 10.0 mi NNW 10.4 mph - N/A   Clear
3:53 AM 55.9 °F 39.0 °F 53% 30.17 in 10.0 mi NNW 11.5 mph - N/A   Clear
4:53 AM 55.0 °F 37.9 °F 53% 30.17 in 10.0 mi NNW 11.5 mph - N/A   Clear
5:53 AM 54.0 °F 37.9 °F 55% 30.18 in 10.0 mi NNW 12.7 mph - N/A   Partly Cloudy
6:53 AM 53.1 °F 39.9 °F 61% 30.20 in 10.0 mi NNW 9.2 mph - N/A   Partly Cloudy
7:53 AM 55.9 °F 43.0 °F 62% 30.22 in 10.0 mi NNW 6.9 mph - N/A   Partly Cloudy
8:53 AM 61.0 °F 46.0 °F 58% 30.24 in 10.0 mi North 15.0 mph - N/A   Partly Cloudy
9:53 AM 66.0 °F 48.0 °F 52% 30.26 in 10.0 mi NNW 11.5 mph - N/A   Partly Cloudy
10:53 AM 70.0 °F 50.0 °F 49% 30.26 in 10.0 mi North 11.5 mph - N/A   Partly Cloudy
11:53 AM 73.0 °F 51.1 °F 46% 30.25 in 10.0 mi North 13.8 mph 18.4 mph N/A   Partly Cloudy
12:53 PM 73.9 °F 52.0 °F 46% 30.24 in 10.0 mi NE 16.1 mph 24.2 mph N/A   Partly Cloudy
1:53 PM 73.0 °F 53.1 °F 49% 30.21 in 10.0 mi NE 20.7 mph 26.5 mph N/A   Partly Cloudy
2:53 PM 72.0 °F 54.0 °F 53% 30.20 in 10.0 mi NE 19.6 mph - N/A   Partly Cloudy
3:53 PM 72.0 °F 51.1 °F 48% 30.20 in 10.0 mi NE 15.0 mph - N/A   Scattered Clouds
4:53 PM 71.1 °F 52.0 °F 51% 30.20 in 10.0 mi NE 16.1 mph - N/A   Mostly Cloudy
5:53 PM 70.0 °F 48.9 °F 47% 30.22 in 10.0 mi NE 17.3 mph - N/A   Scattered Clouds
6:53 PM 69.1 °F 51.1 °F 53% 30.22 in 10.0 mi NE 15.0 mph - N/A   Scattered Clouds
7:53 PM 69.1 °F 52.0 °F 54% 30.23 in 10.0 mi NE 16.1 mph - N/A   Scattered Clouds
8:53 PM 69.1 °F 51.1 °F 53% 30.23 in 10.0 mi NE 13.8 mph 21.9 mph N/A   Mostly Cloudy
9:53 PM 68.0 °F 50.0 °F 52% 30.24 in 10.0 mi NE 12.7 mph - N/A   Scattered Clouds
10:53 PM 62.1 °F 51.1 °F 67% 30.24 in 10.0 mi NW 3.5 mph - N/A   Partly Cloudy
11:53 PM 62.1 °F 51.1 °F 67% 30.23 in 10.0 mi Calm Calm - N/A   Mostly Cloudy